Temperature
20 20 19 19 19 18 20 21 23 24 25 26 26 25 24 24 23 23 23 23 23 22 21 20 20 20 21 21 21 21 21 21 21 20 20 20 20 20 20 20 19 19 19 19 19 19 19 19 19
20 20 19 19 19 20 21 23 24 25 26 26 26 26 24 23 23 23 23 23 22 22 21 21 20 20 20 21 21 21 21 21 21 20 20 20 20 20 20 20 20 19 19 19 19 19 19 19 19
20 19 19 18 19 20 22 24 25 26 27 26 26 25 24 23 23 24 24 23 22 22 21 21 20 20 20 20 20 20 20 20 20 20 20 20 20 20 20 20 19 19 19 19 19 19 19 19 19
20 19 19 18 20 20 22 24 25 26 27 27 26 24 23 23 23 24 24 23 22 22 21 21 21 20 20 20 20 20 20 20 20 20 20 20 20 20 20 20 19 19 19 19 19 19 19 19 19
20 19 18 18 19 21 23 25 26 25 26 26 25 23 22 22 23 24 23 23 22 22 21 21 21 20 20 20 20 20 20 20 20 20 20 20 20 20 20 19 19 19 19 19 19 19 19 19 19
20 18 18 19 20 23 24 26 26 25 25 25 24 22 21 21 23 23 23 23 22 22 21 21 21 20 20 20 20 20 20 20 20 20 20 20 20 20 19 19 19 19 19 19 19 19 19 19 19
19 17 19 20 21 23 25 26 25 25 25 25 24 21 21 21 22 22 22 22 22 21 21 21 20 20 20 20 20 20 20 20 20 20 19 19 19 19 19 19 19 19 19 19 19 19 19 19 19
20 17 19 19 21 23 24 25 25 25 24 25 25 22 21 21 22 22 22 21 21 21 21 21 20 20 20 20 20 20 20 19 19 19 19 19 19 19 19 19 19 19 19 19 19 19 19 18 18
21 17 18 19 21 22 24 24 25 25 24 24 24 23 23 22 22 21 21 21 20 20 21 21 21 20 20 20 20 19 19 19 19 19 19 19 19 19 19 19 19 18 18 19 19 18 18 18 18
20 17 19 20 21 22 23 23 23 24 23 22 22 22 22 22 21 22 21 21 21 21 21 21 21 20 20 20 20 20 19 19 19 19 19 18 18 18 18 18 18 18 18 18 18 18 18 18 18
20 19 20 21 23 23 22 23 23 22 21 21 21 21 21 21 21 21 22 22 21 21 21 21 20 20 20 20 20 19 19 19 19 19 19 18 18 18 18 18 18 18 18 18 18 17 18 18 18
20 20 22 23 24 23 22 22 21 21 20 21 21 21 21 21 21 21 21 21 21 21 21 20 20 20 20 19 19 19 19 19 19 18 18 18 18 18 18 18 18 18 18 17 17 17 17 17 17
21 21 23 23 23 22 21 21 20 19 19 20 20 20 20 20 20 20 20 21 20 20 20 20 20 19 19 19 19 18 18 18 18 18 18 18 18 18 18 17 17 17 17 17 17 17 17 17 17
22 22 22 22 22 21 20 19 19 18 19 19 20 19 19 20 20 20 20 20 20 20 20 20 19 19 18 18 18 18 18 18 18 18 18 18 17 17 17 17 17 17 17 17 17 17 17 17 17
23 22 21 21 21 21 20 19 18 18 19 19 18 19 19 19 19 19 19 20 20 20 19 19 19 19 18 18 18 18 18 18 17 17 17 17 17 17 17 17 17 17 17 16 16 16 16 16 16
22 21 21 21 20 20 20 18 18 18 18 18 18 18 18 18 19 19 19 19 19 19 19 19 19 18 18 18 18 18 17 17 17 17 17 17 17 16 16 16 16 16 16 16 16 16 16 16 16
20 20 21 20 20 19 19 18 18 18 18 17 17 18 18 18 18 18 18 19 19 19 19 19 18 18 18 18 17 17 17 17 17 17 17 17 16 16 16 16 16 16 16 16 16 16 16 16 16
21 21 21 20 19 19 18 18 18 17 17 17 17 17 18 18 18 18 18 18 19 19 19 18 18 18 18 18 17 17 17 17 17 17 17 17 16 16 16 16 16 16 15 15 15 15 15 15 15
22 21 20 20 20 19 18 17 17 17 17 17 17 17 18 18 18 18 18 18 18 18 18 18 18 18 18 18 17 17 17 17 17 17 16 16 16 16 15 15 15 15 15 15 15 15 15 15 15
21 21 20 20 20 19 18 17 17 17 16 17 17 17 18 18 18 18 18 18 18 18 18 18 18 18 18 18 17 17 17 17 16 16 16 16 15 15 15 15 15 14 14 14 14 14 14 14 14
22 21 21 20 19 18 18 18 17 17 17 17 17 17 18 18 18 18 18 19 19 18 18 18 18 18 18 17 17 17 16 16 16 16 15 15 15 15 14 14 14 14 14 14 14 13 13 13 14
21 21 21 20 18 17 18 17 17 16 16 17 17 17 18 18 18 18 19 19 19 18 18 18 18 18 17 17 17 16 16 16 15 15 15 14 14 14 14 14 13 13 13 13 13 13 13 13 13
21 20 20 19 17 17 16 17 16 16 16 17 17 17 18 18 18 19 19 18 18 18 18 18 17 17 17 16 16 16 15 15 15 14 14 14 13 13 13 13 13 13 13 13 13 13 13 13 13
20 19 18 16 16 17 17 16 17 16 17 17 17 18 19 19 18 18 18 18 18 18 18 17 17 17 16 16 15 15 15 14 14 14 13 13 13 13 12 12 12 12 12 12 12 12 12 12 12
20 18 17 18 16 17 16 16 16 17 17 17 17 18 19 19 19 19 18 18 18 18 18 17 17 16 16 15 15 14 14 13 13 13 12 12 12 12 12 12 12 12 12 12 12 12 12 12 12
20 19 18 19 18 17 16 16 17 18 18 18 18 19 19 19 19 19 19 19 18 18 17 17 16 16 15 15 14 14 13 13 12 12 12 11 11 11 11 11 11 11 11 11 11 11 11 12 12
20 18 17 16 16 17 17 17 17 18 18 17 18 18 19 19 19 19 19 18 18 18 17 16 16 15 15 14 13 13 12 12 12 11 11 11 11 10 10 10 10 10 11 11 11 11 11 11 11
20 17 15 16 17 18 18 17 17 19 19 18 17 18 19 19 19 19 19 18 18 17 16 16 15 14 14 13 13 12 12 11 11 11 10 10 10 10 10 10 10 10 10 10 10 10 10 10 11
20 18 15 14 15 16 17 17 17 18 18 18 18 19 20 19 19 19 18 18 17 16 16 15 14 14 13 13 12 11 11 11 10 10 10 9 9 9 9 9 9 9 9 9 9 10 10 10 10
21 19 16 18 17 15 16 16 18 17 17 18 19 19 20 19 19 18 18 17 16 16 15 14 14 13 12 12 11 11 10 10 10 9 9 9 9 9 9 9 9 9 9 9 9 9 9 9 9
Wind_Speed
9 6 1 1 3 2 5 5 4 4 4 3 1 1 3 2 2 2 3 12 16 16 17 21 22 21 21 20 20 20 20 20 19 19 19 19 18 17 16 15 14 13 12 11 10 10 10 10 11
6 3 1 2 2 3 6 5 5 5 5 2 2 2 3 2 3 6 7 10 17 16 16 19 22 21 20 20 19 19 19 18 18 18 18 17 17 16 15 14 13 13 12 11 10 10 10 10 11
5 1 2 2 0 3 6 5 7 7 5 2 1 3 3 1 4 6 7 15 16 13 15 19 22 21 20 19 18 18 17 17 17 17 16 16 15 15 14 13 12 12 11 11 10 10 10 10 10
3 2 3 2 4 5 6 10 10 9 6 1 3 3 4 5 2 7 15 18 17 12 14 19 22 20 19 18 17 17 16 16 15 15 15 14 14 13 13 12 11 11 10 10 10 9 10 10 10
3 3 3 2 6 6 7 9 7 6 4 2 3 3 3 6 7 14 16 18 17 13 12 17 21 20 19 18 17 16 15 15 14 14 14 13 13 12 12 11 11 10 10 9 9 9 9 9 9
4 3 2 3 6 7 6 7 6 5 3 1 4 3 3 4 8 12 14 14 14 13 11 15 20 19 18 17 16 15 15 14 14 13 13 12 12 11 11 11 10 10 10 10 9 9 9 9 9
3 3 2 4 6 7 5 6 7 7 5 2 3 4 2 4 6 10 11 12 11 10 8 10 15 16 17 16 16 15 14 13 13 12 12 12 11 11 11 11 11 10 10 10 10 10 10 10 9
4 3 2 4 5 7 6 7 6 6 4 2 3 5 4 6 10 10 11 11 11 9 7 6 10 12 12 13 15 14 13 13 12 12 12 12 11 11 11 11 11 11 11 11 11 11 11 11 10
4 3 3 5 5 7 6 7 7 4 2 3 4 2 6 15 14 13 12 10 10 9 6 6 6 7 8 9 11 12 12 12 11 11 12 11 10 9 10 11 12 12 12 12 12 12 12 12 12
4 3 8 7 6 6 8 6 6 5 4 4 5 8 15 16 13 12 12 12 12 11 8 6 6 5 6 7 7 7 7 7 8 7 7 7 7 8 8 9 12 13 13 13 13 13 14 13 11
7 7 7 8 9 7 5 5 3 2 4 3 3 11 15 13 10 9 9 9 9 9 8 7 6 5 5 3 3 4 4 5 6 7 7 6 6 6 7 7 8 10 11 11 12 13 13 12 11
6 9 8 7 6 4 3 1 3 5 2 3 7 11 12 11 8 7 7 7 7 7 6 5 6 5 4 2 2 3 3 3 5 7 8 7 5 5 5 6 7 7 7 7 8 8 11 12 13
7 7 6 6 6 2 1 2 5 6 6 10 12 11 9 8 6 4 5 5 5 5 5 5 5 5 4 3 1 1 2 2 4 5 7 8 5 4 4 4 5 6 7 6 6 7 8 9 10
5 4 5 5 3 2 6 5 5 5 7 12 13 11 9 7 5 5 6 5 5 5 5 5 5 5 4 3 2 1 2 3 4 4 4 5 5 4 3 3 3 5 6 6 6 6 6 7 7
3 4 6 5 4 1 6 8 5 3 8 12 12 10 10 8 6 6 4 4 5 6 5 6 6 5 5 4 3 2 2 1 1 1 1 1 2 2 2 2 2 3 5 6 5 6 5 6 7
4 3 4 5 5 3 6 4 2 2 7 10 9 9 9 8 7 7 7 5 5 6 6 6 6 6 5 4 2 1 2 1 1 1 1 1 0 0 0 1 2 3 3 3 3 4 4 5 6
4 2 3 5 5 3 4 4 1 2 5 7 7 7 8 7 7 7 6 5 5 6 7 7 7 6 6 5 3 3 3 2 1 1 1 1 0 0 0 1 2 3 2 2 3 3 3 5 6
5 3 2 3 4 5 5 4 3 3 4 5 5 5 6 6 4 5 5 4 5 5 6 6 6 6 6 5 4 3 2 1 1 0 0 0 1 0 0 1 2 2 2 2 3 4 4 4 6
4 2 1 1 2 4 6 4 2 2 2 3 3 3 4 3 3 4 3 4 4 4 5 5 5 4 4 3 3 2 1 0 0 1 1 1 2 2 1 1 2 1 2 3 3 3 4 4 3
4 2 1 2 3 4 4 3 1 0 1 2 3 2 3 3 2 3 3 3 3 3 4 4 5 4 4 3 2 2 2 1 1 1 2 2 3 3 2 2 3 2 2 3 3 2 2 3 2
3 4 4 4 4 5 3 2 1 1 1 1 1 3 3 5 6 5 3 3 3 4 4 4 4 3 3 2 2 2 2 2 1 2 2 3 4 4 3 3 3 3 3 3 4 3 3 3 3
2 2 4 5 5 3 3 1 3 2 2 2 2 2 3 4 4 4 5 4 5 5 4 3 2 1 1 2 2 2 2 2 3 2 3 4 5 5 5 4 4 4 3 4 4 3 3 3 3
3 5 7 5 5 3 5 2 5 1 2 4 5 5 5 5 5 6 6 6 5 4 3 2 1 1 0 1 1 1 1 2 2 2 4 5 5 5 6 5 4 4 4 5 5 4 3 3 3
7 7 7 6 5 3 2 1 4 3 5 4 4 5 5 5 5 6 5 4 3 3 3 3 2 2 1 1 1 2 3 4 4 4 4 5 4 5 6 5 4 5 4 5 5 5 4 4 4
5 6 5 5 4 3 2 1 7 6 6 6 6 6 6 5 5 5 5 4 4 3 3 3 2 2 2 2 2 3 4 4 5 5 5 5 4 4 6 5 5 5 5 5 5 5 5 5 4
3 6 6 3 3 4 2 3 7 5 5 5 6 5 4 5 5 5 5 5 4 3 3 3 3 2 2 2 3 3 3 3 4 5 5 5 5 6 7 6 6 7 6 6 5 5 6 5 5
6 3 6 7 2 2 5 6 7 2 2 3 4 4 5 5 5 4 3 3 3 3 2 3 3 2 2 2 3 4 4 4 5 6 5 5 6 6 7 6 7 7 6 6 5 5 6 5 6
4 8 6 5 4 1 5 5 5 6 5 4 4 6 6 4 3 3 2 2 2 1 1 0 1 2 2 3 3 3 4 5 5 5 6 6 6 6 7 7 7 7 7 6 6 6 6 6 7
4 5 6 5 5 5 3 7 7 8 7 6 6 5 5 5 4 3 2 1 1 0 0 1 1 2 3 3 3 4 5 5 5 5 7 7 7 7 7 8 7 8 8 7 6 7 7 7 8
2 5 7 5 3 4 4 7 5 7 7 7 6 4 3 4 3 3 2 1 0 1 2 2 2 3 4 4 4 5 5 5 6 7 7 7 7 7 8 8 8 9 9 8 7 9 8 8 9
Wind_Direction
144 140 121 61 41 12 277 261 246 278 281 280 303 109 114 126 176 196 117 139 137 145 154 155 152 148 144 142 140 139 138 138 138 140 141 144 146 149 151 152 153 154 152 149 145 140 135 132 131
136 142 59 55 52 337 287 261 272 282 261 285 346 71 75 64 76 113 130 141 142 145 150 153 153 150 147 145 144 143 143 143 144 145 147 149 150 152 154 155 157 157 157 155 151 148 144 141 139
146 162 79 64 100 236 278 286 289 299 292 270 23 42 73 93 131 146 150 142 139 141 146 156 155 152 150 148 148 147 147 148 149 150 152 154 156 157 158 159 161 161 161 160 159 156 153 150 148
124 55 55 52 266 247 251 282 298 309 325 352 116 56 55 21 143 142 139 141 140 139 145 158 156 155 153 153 152 153 153 154 155 156 158 160 162 164 164 166 168 168 168 168 167 165 162 161 159
68 79 45 320 271 263 258 282 294 300 310 358 89 76 32 10 91 125 138 143 143 141 146 159 159 159 158 158 158 159 159 161 163 164 166 168 171 173 174 176 178 178 179 180 179 178 176 174 173
63 63 57 288 279 280 286 311 334 326 313 29 81 80 37 69 107 130 137 140 142 144 144 157 161 162 162 163 164 166 168 170 172 174 176 179 181 183 184 187 190 191 192 192 192 193 192 191 189
110 106 228 265 285 297 310 340 353 340 350 24 98 92 69 111 116 126 128 130 133 136 135 146 158 164 167 169 170 173 176 179 182 184 186 189 191 194 196 199 201 202 206 208 206 207 207 207 205
136 108 284 273 273 283 306 345 335 340 330 34 86 131 177 153 128 118 120 126 131 133 135 134 146 157 164 172 178 180 184 188 192 193 196 200 204 206 208 209 212 214 216 217 220 221 220 220 219
123 78 253 246 250 270 310 338 327 326 11 28 36 104 141 132 128 124 127 133 143 149 141 130 129 140 152 166 181 186 192 197 201 205 207 209 213 218 222 222 223 228 230 228 228 231 232 231 230
128 184 234 228 228 258 301 316 319 341 10 36 59 82 118 130 135 139 147 154 162 167 162 147 143 141 144 171 181 184 193 203 209 213 220 217 213 224 235 240 239 240 242 240 236 236 237 235 233
177 211 246 257 252 255 281 307 340 10 7 357 123 129 131 134 139 147 153 159 165 166 169 166 159 145 145 160 171 177 185 201 217 220 224 222 217 225 238 247 253 255 254 251 247 245 240 234 228
206 247 247 271 278 271 260 275 41 47 30 52 110 127 131 138 148 157 155 156 151 156 166 165 161 155 154 173 201 186 191 214 226 227 225 220 219 221 227 236 244 251 254 253 252 249 246 240 236
227 259 267 267 288 283 78 85 104 64 70 82 93 100 116 130 132 122 116 119 138 157 158 155 158 166 164 164 207 191 207 248 259 251 239 229 228 234 234 243 251 255 256 252 251 253 252 247 239
246 259 285 298 312 35 92 62 77 63 79 86 86 85 85 87 99 104 108 124 147 150 143 141 150 160 153 150 147 161 175 217 246 247 249 244 237 235 237 242 247 252 255 259 254 250 249 249 243
297 314 331 356 11 85 93 53 44 65 91 88 89 90 85 80 76 81 91 108 127 129 129 135 137 133 135 138 146 138 141 162 228 266 291 264 245 242 236 246 256 259 260 263 260 259 255 255 248
1 19 342 335 10 20 93 115 28 32 97 96 98 97 87 74 74 75 77 85 100 114 117 121 131 125 124 119 119 101 96 126 167 161 77 61 72 113 141 277 279 284 282 276 269 265 265 258 255
12 347 306 327 9 39 92 136 117 56 96 100 99 101 98 88 72 77 83 97 108 112 116 112 114 119 118 114 110 107 109 112 136 141 141 131 46 43 195 261 284 300 302 287 282 270 257 262 261
268 282 308 329 358 55 87 112 106 58 83 98 101 101 101 101 89 93 105 110 108 107 112 112 112 115 117 112 102 93 85 69 58 41 305 74 5 13 214 250 276 291 297 297 289 282 272 265 266
223 242 280 310 57 68 89 106 91 47 67 83 93 114 118 113 115 104 112 118 116 117 119 123 128 135 133 123 126 129 141 184 334 321 330 336 331 331 295 275 278 280 276 280 289 287 289 281 270
198 202 216 87 65 84 99 93 101 65 231 205 183 183 151 141 131 136 147 147 148 148 146 147 155 160 157 151 150 152 149 178 217 304 329 324 324 317 300 277 276 273 274 284 282 273 285 283 269
198 184 195 156 91 58 73 21 333 313 327 275 217 205 182 174 180 187 187 192 184 184 187 179 180 171 162 142 108 83 61 32 357 318 304 304 311 312 296 281 269 263 248 261 266 253 255 277 274
246 221 143 119 100 34 38 314 304 310 327 287 255 235 227 209 191 195 199 210 216 216 208 200 190 172 142 126 133 151 169 218 243 258 281 299 305 305 303 291 275 265 252 253 260 252 246 255 278
142 77 91 97 101 68 30 58 296 334 277 258 242 229 227 219 207 210 213 217 224 220 214 210 189 229 245 156 174 190 237 244 268 277 287 295 302 303 302 296 285 276 264 257 256 255 246 241 252
120 77 62 55 69 42 341 57 290 249 226 238 231 229 228 220 215 222 226 220 225 212 202 194 196 246 256 235 223 225 251 266 280 284 289 293 298 300 297 293 282 274 266 260 258 253 247 242 249
83 85 35 6 14 276 279 241 256 250 227 220 227 233 232 222 214 218 219 219 220 215 209 192 191 244 267 263 265 257 258 260 263 272 277 285 290 289 290 294 285 279 269 263 256 250 249 239 240
155 134 152 203 233 288 334 267 258 252 246 233 228 229 226 214 207 209 215 214 213 204 195 185 192 232 268 272 280 279 266 258 261 264 264 268 268 272 279 283 279 276 274 274 262 253 252 244 240
131 121 142 124 106 9 311 301 306 258 240 215 216 214 220 217 206 203 202 189 179 173 181 191 198 235 272 283 291 292 287 275 274 278 273 270 269 275 277 279 281 282 279 274 266 255 254 249 245
117 137 100 107 130 285 309 296 257 261 237 217 211 214 218 201 193 187 174 162 163 169 184 161 188 250 279 291 288 290 291 287 284 285 283 279 279 279 286 286 283 283 280 275 265 261 258 252 252
117 95 98 102 140 148 242 272 227 223 223 219 223 213 200 192 186 173 154 150 149 75 3 308 301 290 295 297 297 300 296 296 296 288 283 283 284 286 285 284 284 283 280 274 265 262 259 253 255
151 153 148 145 187 165 177 265 269 237 228 211 210 197 180 170 157 155 160 162 249 301 304 302 299 293 287 289 292 292 293 297 295 290 287 286 284 284 283 284 284 283 280 274 266 266 263 254 253
Height
1520 1521 1522 1524 1526 1530 1528 1516 1507 1502 1498 1494 1493 1492 1492 1495 1498 1502 1497 1498 1502 1506 1511 1515 1519 1522 1525 1528 1531 1533 1535 1537 1538 1540 1542 1543 1544 1546 1547 1548 1549 1551 1552 1553 1554 1554 1555 1556 1556
1521 1522 1525 1525 1529 1536 1526 1510 1504 1498 1495 1493 1493 1492 1493 1494 1494 1495 1495 1499 1504 1508 1512 1516 1520 1524 1527 1529 1532 1534 1536 1538 1540 1541 1543 1544 1545 1547 1548 1549 1550 1552 1553 1554 1555 1555 1556 1557 1557
1522 1523 1525 1526 1530 1533 1522 1505 1500 1495 1492 1492 1493 1493 1494 1495 1495 1496 1497 1501 1505 1509 1514 1518 1521 1525 1528 1531 1533 1535 1537 1539 1541 1542 1544 1545 1546 1548 1549 1550 1551 1552 1554 1555 1556 1556 1557 1558 1559
1523 1525 1526 1529 1530 1521 1513 1502 1497 1494 1490 1490 1492 1495 1496 1497 1497 1498 1499 1502 1506 1510 1515 1519 1523 1526 1529 1532 1534 1536 1538 1540 1541 1543 1544 1546 1547 1549 1550 1551 1552 1553 1554 1555 1556 1557 1558 1559 1560
1523 1525 1529 1532 1527 1515 1506 1500 1497 1494 1492 1491 1492 1495 1497 1498 1498 1500 1501 1504 1507 1511 1516 1520 1523 1527 1530 1533 1535 1537 1539 1541 1542 1544 1545 1546 1548 1549 1550 1552 1553 1554 1555 1556 1557 1558 1559 1559 1560
1524 1525 1534 1535 1525 1511 1503 1499 1496 1494 1493 1492 1494 1496 1499 1499 1500 1502 1504 1506 1509 1513 1517 1521 1524 1528 1531 1534 1536 1538 1540 1542 1543 1544 1546 1547 1548 1549 1551 1552 1553 1554 1555 1556 1557 1558 1559 1560 1561
1525 1529 1532 1530 1524 1513 1503 1500 1498 1496 1494 1494 1495 1498 1499 1500 1502 1504 1506 1508 1511 1515 1518 1522 1525 1529 1532 1535 1537 1539 1541 1542 1544 1545 1546 1547 1548 1550 1551 1552 1553 1554 1555 1556 1557 1558 1559 1560 1561
1524 1528 1530 1529 1523 1514 1503 1501 1499 1498 1496 1496 1496 1497 1500 1501 1502 1505 1507 1510 1513 1516 1520 1523 1526 1529 1532 1535 1537 1539 1541 1543 1544 1545 1546 1547 1548 1549 1550 1551 1552 1553 1554 1555 1556 1558 1559 1559 1560
1524 1531 1534 1526 1519 1511 1503 1502 1499 1498 1497 1496 1497 1498 1499 1501 1503 1506 1508 1511 1514 1517 1521 1524 1527 1530 1533 1535 1537 1539 1541 1542 1544 1544 1545 1547 1548 1549 1550 1550 1551 1552 1553 1554 1555 1556 1557 1558 1559
1522 1531 1524 1514 1510 1506 1503 1502 1501 1499 1498 1498 1498 1499 1500 1503 1505 1507 1509 1512 1515 1518 1521 1524 1527 1530 1533 1535 1537 1539 1540 1542 1543 1544 1544 1545 1546 1547 1548 1549 1550 1551 1551 1552 1553 1554 1555 1556 1557
1518 1520 1512 1507 1505 1504 1503 1502 1501 1500 1501 1500 1500 1500 1502 1504 1507 1509 1511 1513 1516 1519 1522 1525 1528 1530 1533 1535 1537 1538 1539 1541 1542 1543 1543 1544 1545 1546 1546 1547 1548 1548 1549 1550 1551 1552 1552 1553 1554
1516 1511 1508 1505 1502 1502 1501 1501 1502 1502 1504 1502 1501 1502 1503 1506 1508 1510 1512 1514 1517 1520 1523 1525 1528 1530 1532 1535 1536 1537 1539 1540 1541 1541 1541 1542 1543 1543 1544 1545 1545 1546 1547 1547 1548 1548 1549 1549 1550
1512 1508 1505 1502 1500 1499 1499 1500 1502 1505 1504 1503 1503 1505 1507 1509 1511 1513 1515 1517 1518 1520 1523 1525 1527 1529 1531 1534 1536 1537 1538 1539 1539 1539 1539 1540 1541 1541 1541 1542 1543 1543 1543 1544 1544 1544 1545 1545 1546
1507 1505 1503 1501 1499 1499 1500 1502 1503 1507 1506 1505 1505 1506 1508 1510 1512 1514 1516 1517 1519 1521 1523 1524 1527 1528 1530 1533 1534 1535 1536 1537 1538 1538 1538 1538 1538 1538 1538 1539 1539 1539 1539 1540 1539 1540 1540 1540 1541
1506 1506 1503 1501 1499 1500 1500 1506 1507 1508 1507 1505 1506 1507 1509 1510 1513 1514 1516 1518 1519 1520 1522 1524 1527 1528 1529 1530 1532 1532 1533 1535 1535 1536 1535 1535 1535 1535 1536 1536 1536 1535 1535 1535 1535 1535 1535 1535 1535
1506 1509 1512 1504 1502 1501 1505 1514 1510 1509 1507 1507 1507 1508 1510 1511 1513 1515 1517 1518 1519 1520 1522 1524 1526 1527 1528 1529 1530 1531 1531 1533 1534 1534 1533 1533 1533 1532 1533 1533 1533 1532 1531 1531 1530 1530 1530 1529 1529
1513 1518 1515 1509 1504 1503 1507 1513 1511 1510 1508 1508 1509 1509 1510 1512 1515 1516 1517 1519 1520 1521 1522 1523 1525 1527 1528 1528 1529 1530 1530 1532 1532 1532 1531 1531 1530 1530 1530 1530 1529 1528 1527 1527 1526 1525 1525 1524 1523
1517 1515 1514 1513 1507 1506 1510 1513 1512 1512 1511 1510 1511 1511 1512 1512 1515 1517 1519 1520 1521 1522 1523 1524 1525 1526 1527 1528 1529 1530 1531 1531 1531 1530 1530 1529 1528 1528 1528 1527 1526 1525 1524 1523 1522 1521 1520 1519 1518
1507 1511 1514 1511 1508 1511 1514 1516 1515 1515 1514 1514 1513 1514 1514 1515 1516 1518 1520 1522 1522 1523 1524 1524 1525 1526 1527 1528 1529 1529 1530 1530 1529 1529 1528 1527 1527 1526 1525 1524 1523 1522 1521 1519 1518 1517 1516 1515 1514
1506 1511 1513 1511 1508 1512 1516 1518 1517 1517 1516 1516 1514 1514 1514 1516 1517 1519 1521 1522 1523 1523 1524 1525 1526 1527 1527 1528 1528 1529 1529 1528 1528 1527 1526 1525 1524 1523 1522 1521 1520 1518 1517 1516 1515 1514 1512 1511 1511
1506 1509 1510 1512 1512 1514 1518 1523 1520 1517 1517 1517 1516 1516 1516 1516 1518 1519 1521 1522 1523 1524 1524 1525 1526 1527 1527 1527 1528 1527 1527 1526 1526 1525 1524 1523 1522 1520 1519 1517 1516 1515 1514 1513 1512 1511 1509 1508 1507
1508 1502 1503 1509 1518 1527 1524 1534 1524 1520 1518 1516 1516 1516 1516 1518 1519 1520 1521 1522 1523 1524 1525 1525 1526 1526 1526 1526 1526 1526 1525 1524 1523 1522 1521 1520 1518 1517 1515 1514 1512 1511 1510 1509 1508 1507 1506 1505 1504
1503 1502 1505 1512 1521 1529 1530 1534 1530 1522 1521 1517 1516 1516 1517 1517 1518 1520 1521 1522 1523 1524 1524 1525 1525 1525 1525 1525 1524 1523 1522 1521 1519 1518 1517 1516 1514 1513 1511 1510 1509 1507 1506 1505 1505 1504 1503 1502 1501
1501 1507 1513 1521 1527 1538 1534 1537 1532 1524 1518 1515 1514 1514 1515 1516 1518 1519 1520 1521 1522 1523 1523 1523 1523 1523 1523 1522 1521 1520 1518 1517 1515 1514 1512 1511 1509 1508 1507 1505 1504 1503 1502 1501 1500 1500 1499 1498 1497
1504 1518 1534 1536 1543 1541 1533 1535 1530 1514 1511 1511 1511 1512 1513 1515 1516 1517 1518 1519 1520 1521 1521 1521 1521 1520 1520 1519 1518 1516 1515 1513 1511 1509 1507 1506 1504 1503 1502 1500 1499 1498 1497 1496 1495 1495 1495 1494 1493
1505 1513 1534 1541 1544 1541 1533 1534 1522 1509 1508 1508 1509 1510 1511 1513 1514 1516 1517 1518 1518 1519 1519 1518 1518 1517 1517 1515 1514 1513 1511 1509 1507 1505 1503 1501 1499 1497 1496 1495 1494 1493 1492 1491 1490 1490 1489 1489 1489
1507 1514 1517 1534 1539 1542 1536 1528 1515 1506 1506 1507 1507 1508 1509 1511 1512 1514 1515 1516 1516 1516 1516 1516 1515 1514 1513 1512 1510 1508 1507 1504 1502 1500 1498 1496 1494 1492 1491 1489 1488 1487 1486 1485 1485 1484 1484 1484 1484
1500 1511 1524 1534 1544 1545 1536 1531 1526 1510 1507 1506 1506 1507 1508 1509 1511 1512 1513 1514 1514 1514 1514 1514 1513 1512 1510 1508 1506 1505 1502 1500 1498 1496 1494 1491 1489 1487 1486 1484 1483 1481 1480 1479 1479 1478 1478 1478 1478
1505 1513 1524 1534 1535 1545 1546 1535 1508 1505 1502 1503 1503 1504 1506 1508 1510 1511 1512 1512 1513 1513 1512 1511 1510 1508 1507 1505 1503 1501 1499 1496 1494 1491 1489 1487 1484 1482 1480 1479 1477 1476 1474 1474 1473 1472 1472 1472 1472
1498 1505 1517 1527 1534 1538 1541 1533 1499 1499 1498 1500 1501 1503 1505 1507 1509 1510 1511 1511 1511 1510 1509 1508 1507 1505 1503 1501 1499 1497 1494 1492 1489 1487 1484 1482 1479 1477 1475 1473 1471 1470 1468 1467 1466 1466 1465 1465 1465